Time,TemperatureF,DewpointF,PressureIn,WindDirection,WindDirectionDegrees,WindSpeedMPH,WindSpeedGustMPH,Humidity,HourlyPrecipIn,Conditions,Clouds,dailyrainin,SoftwareType,DateUTC
2013-09-03 00:12:00,64.0,47.0,30.37,SSW,199,6.0,12.0,53,0.00,,,0.01,,2013-09-03 06:12:00,
2013-09-03 00:22:00,64.0,47.0,30.37,SSE,163,7.0,11.0,53,0.00,,,0.01,,2013-09-03 06:22:00,
2013-09-03 00:43:00,63.0,46.0,30.37,South,187,7.0,11.0,53,0.00,,,0.01,,2013-09-03 06:43:00,
2013-09-03 00:52:00,63.0,46.0,30.37,South,186,6.0,12.0,54,0.00,,,0.01,,2013-09-03 06:52:00,
2013-09-03 01:12:00,63.0,46.0,30.37,SSE,164,7.0,13.0,54,0.00,,,0.01,,2013-09-03 07:12:00,
2013-09-03 01:22:00,63.0,46.0,30.37,SSE,147,5.0,9.0,54,0.00,,,0.01,,2013-09-03 07:22:00,
2013-09-03 01:42:00,63.0,47.0,30.37,SSE,158,5.0,9.0,55,0.00,,,0.01,,2013-09-03 07:42:00,
2013-09-03 01:52:00,63.0,46.0,30.38,SSE,164,5.0,11.0,54,0.00,,,0.01,,2013-09-03 07:52:00,
2013-09-03 02:11:00,63.0,46.0,30.38,SSE,153,6.0,10.0,54,0.00,,,0.01,,2013-09-03 08:11:00,
2013-09-03 02:22:00,63.0,46.0,30.38,South,180,5.0,9.0,54,0.00,,,0.01,,2013-09-03 08:22:00,
2013-09-03 02:52:00,62.0,46.0,30.38,SSE,149,6.0,9.0,55,0.00,,,0.00,,2013-09-03 08:52:00,
2013-09-03 03:11:00,62.0,46.0,30.38,South,177,7.0,12.0,55,0.00,,,0.00,,2013-09-03 09:11:00,
2013-09-03 03:21:00,62.0,46.0,30.38,South,178,5.0,10.0,55,0.00,,,0.00,,2013-09-03 09:21:00,
2013-09-03 03:43:00,61.0,45.0,30.38,SSW,201,5.0,9.0,55,0.00,,,0.00,,2013-09-03 09:43:00,
2013-09-03 03:53:00,61.0,45.0,30.38,South,185,5.0,7.0,56,0.00,,,0.00,,2013-09-03 09:53:00,
2013-09-03 04:12:00,60.0,45.0,30.39,SSE,163,5.0,7.0,57,0.00,,,0.00,,2013-09-03 10:12:00,
2013-09-03 04:23:00,60.0,45.0,30.39,WSW,238,4.0,7.0,57,0.00,,,0.00,,2013-09-03 10:23:00,
2013-09-03 04:42:00,59.0,45.0,30.39,South,175,4.0,7.0,60,0.00,,,0.00,,2013-09-03 10:42:00,
2013-09-03 04:53:00,59.0,45.0,30.39,South,188,6.0,8.0,59,0.00,,,0.00,,2013-09-03 10:53:00,
2013-09-03 05:12:00,60.0,45.0,30.39,South,173,5.0,9.0,58,0.00,,,0.00,,2013-09-03 11:12:00,
2013-09-03 05:22:00,60.0,45.0,30.39,SSW,192,6.0,8.0,58,0.00,,,0.00,,2013-09-03 11:22:00,
2013-09-03 05:42:00,60.0,45.0,30.39,SW,217,3.0,7.0,58,0.00,,,0.00,,2013-09-03 11:42:00,
2013-09-03 05:52:00,60.0,45.0,30.39,South,179,5.0,7.0,58,0.00,,,0.00,,2013-09-03 11:52:00,
2013-09-03 06:12:00,60.0,45.0,30.39,South,178,4.0,8.0,58,0.00,,,0.00,,2013-09-03 12:12:00,
2013-09-03 06:21:00,60.0,45.0,30.39,SSE,167,6.0,10.0,58,0.00,,,0.00,,2013-09-03 12:21:00,
2013-09-03 06:42:00,60.0,45.0,30.39,SE,136,6.0,9.0,58,0.00,,,0.00,,2013-09-03 12:42:00,
2013-09-03 06:52:00,60.0,45.0,30.39,South,171,5.0,8.0,58,0.00,,,0.00,,2013-09-03 12:52:00,
2013-09-03 07:11:00,60.0,45.0,30.39,SSE,165,5.0,8.0,58,0.00,,,0.00,,2013-09-03 13:11:00,
2013-09-03 07:21:00,60.0,46.0,30.40,SSE,163,1.0,6.0,59,0.00,,,0.00,,2013-09-03 13:21:00,
2013-09-03 07:42:00,59.0,45.0,30.40,South,171,3.0,5.0,60,0.00,,,0.00,,2013-09-03 13:42:00,
2013-09-03 07:52:00,59.0,46.0,30.40,SSE,168,5.0,8.0,62,0.00,,,0.00,,2013-09-03 13:52:00,
2013-09-03 08:11:00,61.0,46.0,30.40,SSE,155,6.0,9.0,58,0.00,,,0.00,,2013-09-03 14:11:00,
2013-09-03 08:21:00,62.0,46.0,30.41,SSW,192,5.0,9.0,56,0.00,,,0.00,,2013-09-03 14:21:00,
2013-09-03 10:14:00,71.0,48.0,30.42,South,171,4.0,6.0,44,0.00,,,0.00,,2013-09-03 16:14:00,
2013-09-03 11:13:00,75.0,48.0,30.42,SE,126,1.0,5.0,38,0.00,,,0.00,,2013-09-03 17:13:00,
2013-09-03 12:12:00,78.0,46.0,30.42,South,174,6.0,10.0,32,0.00,,,0.00,,2013-09-03 18:12:00,
2013-09-03 12:42:00,78.0,43.0,30.41,East,90,2.0,8.0,29,0.00,,,0.00,,2013-09-03 18:42:00,
2013-09-03 12:52:00,78.0,41.0,30.40,ESE,105,0.0,2.0,27,0.00,,,0.00,,2013-09-03 18:52:00,
2013-09-03 13:11:00,79.0,42.0,30.40,NE,53,0.0,6.0,27,0.00,,,0.00,,2013-09-03 19:11:00,
2013-09-03 13:22:00,79.0,41.0,30.40,East,98,2.0,7.0,26,0.00,,,0.00,,2013-09-03 19:22:00,
2013-09-03 13:42:00,79.0,43.0,30.39,ENE,76,0.0,7.0,28,0.00,,,0.00,,2013-09-03 19:42:00,
2013-09-03 13:52:00,81.0,43.0,30.39,NE,53,0.0,4.0,26,0.00,,,0.00,,2013-09-03 19:52:00,
2013-09-03 14:11:00,81.0,45.0,30.39,SSW,209,0.0,5.0,28,0.00,,,0.00,,2013-09-03 20:11:00,
2013-09-03 14:21:00,82.0,46.0,30.38,West,275,1.0,8.0,28,0.00,,,0.00,,2013-09-03 20:21:00,
2013-09-03 14:42:00,81.0,45.0,30.38,North,360,0.0,10.0,28,0.00,,,0.00,,2013-09-03 20:42:00,
2013-09-03 14:52:00,81.0,47.0,30.38,WSW,244,4.0,18.0,31,0.00,,,0.00,,2013-09-03 20:52:00,
2013-09-03 15:12:00,82.0,45.0,30.37,WSW,243,3.0,8.0,27,0.00,,,0.00,,2013-09-03 21:12:00,
2013-09-03 15:22:00,80.0,47.0,30.37,SW,232,7.0,12.0,31,0.00,,,0.00,,2013-09-03 21:22:00,
2013-09-03 15:44:00,78.0,47.0,30.37,SSW,200,5.0,11.0,33,0.00,,,0.00,,2013-09-03 21:44:00,
2013-09-03 15:54:00,78.0,47.0,30.37,SW,227,4.0,7.0,34,0.00,,,0.00,,2013-09-03 21:54:00,
2013-09-03 16:13:00,77.0,47.0,30.37,SW,227,2.0,7.0,35,0.00,,,0.00,,2013-09-03 22:13:00,
2013-09-03 16:23:00,77.0,48.0,30.37,SW,232,4.0,8.0,36,0.00,,,0.00,,2013-09-03 22:23:00,
2013-09-03 16:52:00,75.0,48.0,30.38,WSW,248,11.0,22.0,38,0.00,,,0.00,,2013-09-03 22:52:00,
2013-09-03 17:12:00,74.0,48.0,30.38,WSW,238,9.0,16.0,40,0.00,,,0.00,,2013-09-03 23:12:00,
2013-09-03 17:22:00,75.0,50.0,30.38,SW,219,3.0,10.0,42,0.00,,,0.00,,2013-09-03 23:22:00,
2013-09-03 17:42:00,73.0,50.0,30.39,SSW,205,4.0,11.0,44,0.00,,,0.00,,2013-09-03 23:42:00,
2013-09-03 17:53:00,72.0,50.0,30.40,South,189,4.0,7.0,46,0.00,,,0.00,,2013-09-03 23:53:00,
2013-09-03 18:11:00,71.0,51.0,30.40,ENE,58,4.0,8.0,49,0.00,,,0.00,,2013-09-04 00:11:00,
2013-09-03 18:22:00,70.0,52.0,30.40,NNE,31,2.0,7.0,52,0.00,,,0.00,,2013-09-04 00:22:00,
2013-09-03 18:42:00,69.0,52.0,30.40,NE,49,3.0,9.0,55,0.00,,,0.00,,2013-09-04 00:42:00,
2013-09-03 18:52:00,68.0,52.0,30.40,East,86,0.0,6.0,56,0.00,,,0.00,,2013-09-04 00:52:00,
2013-09-03 19:11:00,68.0,51.0,30.39,North,5,0.0,6.0,55,0.00,,,0.00,,2013-09-04 01:11:00,
2013-09-03 19:21:00,68.0,50.0,30.39,East,90,2.0,6.0,53,0.00,,,0.00,,2013-09-04 01:21:00,
2013-09-03 19:42:00,68.0,50.0,30.39,ENE,69,0.0,7.0,52,0.00,,,0.00,,2013-09-04 01:42:00,
2013-09-03 19:52:00,68.0,51.0,30.38,ENE,69,0.0,1.0,55,0.00,,,0.00,,2013-09-04 01:52:00,
2013-09-03 20:11:00,67.0,50.0,30.39,ENE,69,0.0,0.0,55,0.00,,,0.00,,2013-09-04 02:11:00,
2013-09-03 20:22:00,66.0,50.0,30.38,East,94,2.0,5.0,56,0.00,,,0.00,,2013-09-04 02:22:00,
2013-09-03 20:42:00,65.0,49.0,30.38,South,184,3.0,4.0,57,0.00,,,0.00,,2013-09-04 02:42:00,
2013-09-03 20:52:00,64.0,49.0,30.38,SSW,195,0.0,4.0,59,0.00,,,0.00,,2013-09-04 02:52:00,
2013-09-03 21:11:00,64.0,50.0,30.39,SSW,208,4.0,6.0,61,0.00,,,0.00,,2013-09-04 03:11:00,
2013-09-03 21:22:00,64.0,50.0,30.39,SSW,209,4.0,7.0,60,0.00,,,0.00,,2013-09-04 03:22:00,
2013-09-03 21:44:00,65.0,51.0,30.39,South,189,4.0,6.0,60,0.00,,,0.00,,2013-09-04 03:44:00,
2013-09-03 21:54:00,65.0,50.0,30.40,SSW,193,4.0,7.0,59,0.00,,,0.00,,2013-09-04 03:54:00,
2013-09-03 22:14:00,65.0,50.0,30.40,South,190,2.0,6.0,58,0.00,,,0.00,,2013-09-04 04:14:00,
2013-09-03 22:44:00,65.0,49.0,30.40,SSW,213,2.0,6.0,57,0.00,,,0.00,,2013-09-04 04:44:00,
2013-09-03 22:54:00,65.0,49.0,30.40,SW,215,0.0,4.0,57,0.00,,,0.00,,2013-09-04 04:54:00,
2013-09-03 23:12:00,65.0,49.0,30.40,SW,215,0.0,0.0,57,0.00,,,0.00,,2013-09-04 05:12:00,
2013-09-03 23:23:00,65.0,50.0,30.40,SW,215,1.0,4.0,58,0.00,,,0.00,,2013-09-04 05:23:00,
2013-09-03 23:43:00,64.0,49.0,30.40,SSW,209,1.0,5.0,58,0.00,,,0.00,,2013-09-04 05:43:00,
2013-09-03 23:52:00,63.0,49.0,30.40,SSW,213,4.0,6.0,60,0.00,,,0.00,,2013-09-04 05:52:00,